Snowfall_Accumulation
0.0 0.0 0.0 0.0 0.0 0.0 0.1 0.2 0.0 0.0 0.0 0.0 0.0 0.0 0.0 0.0 0.0 0.0 0.0 0.0 0.0 0.0 0.0 0.0 0.0 0.0 0.0 0.0 0.0 0.0 0.0 0.0 0.0 0.0 0.0 0.0 0.0 0.0 0.0 0.0 0.0 0.0 0.0 0.0
0.0 0.0 0.0 0.0 0.0 0.0 0.0 0.0 0.2 0.0 0.0 0.0 0.0 0.0 0.0 0.0 0.0 0.0 0.0 0.0 0.0 0.0 0.0 0.0 0.0 0.0 0.0 0.0 0.0 0.0 0.0 0.0 0.0 0.0 0.0 0.0 0.0 0.0 0.0 0.0 0.0 0.0 0.0 0.0
0.0 0.0 0.0 0.0 0.0 0.0 0.0 0.0 0.0 0.0 0.0 0.0 0.0 0.0 0.0 0.0 0.0 0.0 0.0 0.0 0.0 0.0 0.0 0.0 0.0 0.0 0.0 0.0 0.0 0.0 0.0 0.0 0.0 0.0 0.0 0.0 0.0 0.0 0.0 0.0 0.0 0.0 0.0 0.0
0.0 0.0 0.0 0.0 0.0 0.0 2.6 0.0 0.0 0.0 0.0 1.1 0.0 4.0 0.1 0.0 0.0 0.0 0.0 0.0 0.0 0.0 0.0 0.0 0.0 0.0 0.0 0.0 0.0 0.0 0.0 0.0 0.0 0.0 0.0 0.0 0.0 0.0 0.0 0.0 0.0 0.0 0.0 0.0
0.1 0.0 0.0 0.1 0.1 0.0 0.0 0.0 0.0 0.0 2.6 4.1 1.8 6.7 3.0 0.0 0.4 0.4 0.0 0.0 0.1 0.0 0.0 0.0 0.0 0.0 0.0 0.0 0.0 0.0 0.0 0.0 0.0 0.0 0.0 0.0 0.0 0.0 0.0 0.0 0.0 0.0 0.0 0.0
0.0 0.0 0.0 0.1 0.0 0.0 0.0 0.0 0.0 0.2 0.8 19.8 1.5 6.5 8.0 1.5 3.2 1.8 1.8 0.0 0.2 0.2 0.0 0.0 0.0 0.0 0.0 0.0 0.0 0.0 0.0 0.0 0.0 0.0 0.0 0.0 0.0 0.0 0.0 0.0 0.0 0.0 0.0 0.0
0.0 0.0 0.0 0.0 0.0 0.0 0.0 0.9 26.1 27.4 29.7 26.7 0.2 1.7 6.3 1.6 0.8 1.8 4.2 2.1 0.3 0.5 0.3 0.2 0.0 0.8 0.5 0.1 0.1 0.0 0.0 0.0 0.0 0.0 0.0 0.0 0.0 0.0 0.1 0.1 0.0 0.0 0.0 0.0
5.8 6.5 1.3 0.5 0.3 1.7 0.5 2.1 18.6 44.6 21.6 11.7 0.5 15.9 10.5 1.3 0.4 0.7 0.8 4.2 1.1 1.3 0.9 1.3 4.0 1.6 1.0 0.6 0.6 0.6 0.0 0.1 0.0 0.0 0.0 0.0 0.0 0.1 0.1 0.1 0.1 0.1 0.0 0.0
27.6 12.0 2.8 2.0 0.7 0.1 1.6 4.7 0.5 12.4 2.3 19.3 11.5 15.8 3.3 1.6 1.7 1.4 4.1 3.2 3.7 2.2 2.2 3.4 3.7 1.5 0.8 4.7 7.3 2.4 1.6 0.2 0.1 0.0 0.0 0.1 0.0 0.0 0.1 0.1 0.0 0.1 0.1 0.0
27.1 39.1 7.7 1.6 0.0 0.0 3.5 1.2 10.0 9.4 69.7 58.4 11.9 15.7 26.9 16.6 13.6 10.5 13.3 10.0 7.3 3.7 3.5 2.9 5.7 1.9 1.8 8.5 6.9 2.9 0.8 1.2 0.7 0.0 0.0 0.1 0.1 0.2 0.2 0.1 0.1 0.2 0.2 0.2
10.6 22.6 7.0 2.5 8.4 15.6 12.8 18.1 18.5 27.4 47.2 60.6 45.5 38.8 14.5 18.5 19.3 19.9 20.3 17.7 12.0 8.8 8.0 5.6 4.9 2.8 1.8 4.2 7.5 6.2 4.1 4.6 4.4 1.7 0.6 0.2 0.9 0.2 0.2 0.3 0.8 1.4 1.3 1.3
1.8 14.6 10.9 4.0 0.6 0.6 3.4 16.7 28.0 60.8 59.3 46.4 46.5 53.7 17.3 9.6 9.2 9.2 14.2 18.0 13.4 9.3 11.2 7.6 3.9 3.9 2.7 3.0 3.4 6.4 6.6 8.1 8.5 7.1 5.3 1.7 2.3 2.2 1.4 1.9 1.7 2.1 2.3 1.1
3.4 14.2 14.6 6.2 0.9 0.2 3.8 4.7 9.5 22.5 33.7 54.5 57.2 57.3 10.3 8.3 9.7 8.4 12.3 13.7 15.2 11.6 8.1 9.2 8.8 4.2 5.3 3.5 6.3 5.9 6.1 4.4 5.8 10.4 11.8 4.0 5.1 3.9 4.8 5.9 4.7 4.6 4.4 3.6
0.0 10.7 14.0 16.2 10.6 6.1 13.0 6.8 4.4 11.8 49.4 34.1 32.2 29.9 15.9 14.3 14.2 12.7 7.7 6.7 6.5 8.1 9.0 7.3 6.3 5.9 3.7 2.5 4.1 2.4 1.7 2.5 3.7 4.0 8.7 9.7 9.5 11.3 9.3 7.9 9.6 11.0 9.0 8.1
0.5 16.5 6.2 4.0 4.0 2.4 5.1 8.6 5.2 10.6 11.7 25.7 26.7 18.6 15.0 12.3 9.3 7.0 4.8 2.8 1.9 2.3 1.6 2.4 3.8 4.6 3.7 2.0 1.4 0.7 0.2 0.0 0.1 0.2 0.2 3.0 10.5 10.8 11.1 11.1 16.0 12.9 16.2 16.7
0.1 8.0 7.2 7.2 3.3 1.2 10.4 8.5 5.3 5.2 8.4 11.1 6.5 15.1 10.1 6.3 4.4 3.7 2.4 1.0 0.2 0.1 0.2 0.5 0.3 0.8 1.5 0.6 0.2 0.0 0.0 0.0 0.0 0.0 0.0 0.0 0.0 0.4 3.8 5.3 6.4 5.5 11.6 15.7
3.3 6.3 6.9 12.7 0.9 3.2 16.1 17.0 8.9 5.7 3.8 4.5 8.7 14.7 6.3 5.0 2.8 3.1 1.1 0.3 0.0 0.1 1.4 5.7 2.8 3.1 0.4 1.2 0.0 0.7 0.0 0.0 0.0 0.0 0.0 0.0 0.0 0.2 1.1 1.0 0.6 2.6 3.2 3.7
5.8 5.6 8.2 12.1 6.6 42.7 12.5 1.6 2.0 2.4 2.3 2.6 2.7 2.9 1.7 0.6 1.3 1.4 1.0 0.6 0.8 0.5 1.1 3.9 7.3 5.5 3.4 2.3 1.8 1.3 0.9 0.9 0.0 0.0 0.0 0.0 0.1 1.5 1.8 0.5 0.5 1.8 1.7 2.3
1.0 4.8 17.1 22.1 12.1 9.5 5.8 1.9 2.7 2.8 3.5 1.6 1.1 0.6 0.4 0.7 0.2 2.2 1.8 1.1 0.9 0.7 0.5 0.3 0.9 4.6 4.8 4.2 3.3 2.2 1.4 1.7 2.2 2.9 2.0 1.2 1.8 1.6 1.1 1.3 1.0 2.7 2.9 3.3
0.4 2.0 20.5 20.6 22.4 29.3 6.0 0.5 0.1 0.6 6.9 0.8 0.2 0.3 0.4 0.3 0.7 2.9 2.5 2.2 1.0 0.4 0.0 0.0 0.0 0.0 0.0 0.0 2.5 2.8 2.8 1.3 2.9 4.0 5.5 6.1 5.0 5.4 4.9 6.0 8.4 5.5 3.7 5.6
8.4 14.0 30.6 27.0 33.8 14.5 1.6 0.6 0.2 10.1 10.3 0.8 0.1 0.1 0.0 0.3 1.6 2.7 1.8 3.2 2.9 0.0 0.0 0.0 0.0 0.0 0.1 0.0 0.0 0.9 1.6 2.9 4.6 2.9 4.4 4.6 8.9 10.2 12.4 11.2 14.7 15.4 10.5 7.8
13.7 18.8 19.5 19.7 32.2 33.9 1.2 1.0 4.0 4.6 0.5 0.5 0.2 0.1 0.5 0.8 2.4 3.8 4.7 5.2 2.1 0.2 0.0 0.0 0.0 0.0 0.0 0.0 0.0 0.2 1.7 0.3 0.6 1.5 4.0 4.4 6.4 9.1 10.7 12.4 13.4 14.7 15.1 13.5
13.8 8.3 14.1 10.9 18.1 6.1 3.9 3.7 1.0 0.4 1.2 1.0 0.3 0.1 0.6 3.6 5.8 7.0 6.9 5.5 2.5 0.5 0.0 0.0 0.0 0.0 0.0 0.0 0.0 0.1 0.6 1.6 2.1 2.9 4.9 5.8 6.2 7.3 8.3 10.2 11.2 10.8 9.8 11.0
2.1 0.3 6.3 8.6 5.8 2.5 4.2 1.9 0.4 0.4 1.9 1.2 0.3 0.7 1.3 3.4 3.5 3.7 4.1 2.2 1.2 0.4 0.1 0.0 0.0 0.0 0.0 0.0 0.0 0.2 0.8 0.8 1.6 2.9 4.0 5.1 5.8 6.8 6.9 6.0 5.6 6.3 7.4 7.7
1.8 1.7 3.8 7.2 4.3 2.2 1.7 2.0 1.3 1.1 0.7 0.5 0.2 0.2 0.1 0.5 0.3 0.0 1.8 0.2 0.2 0.0 0.1 0.1 0.0 0.0 0.0 0.0 1.0 0.2 0.5 0.8 1.5 1.8 3.1 3.9 3.7 3.6 3.7 3.3 4.2 4.7 6.7 7.0
1.0 3.6 8.8 10.6 6.5 6.1 5.6 4.0 3.0 3.3 2.3 1.0 0.8 1.0 0.1 0.1 0.2 0.1 0.5 0.1 0.0 0.1 0.0 0.0 0.0 0.4 0.1 0.0 0.1 0.5 0.7 0.9 1.2 1.6 2.0 2.6 3.2 2.9 2.3 2.4 4.2 3.9 4.1 4.3